H1 CPF 2 NER 2024 11 12 9 317 01 glonass144 H2 2207501 9144 52984 2024 11 12 0 0 0 2024 11 15 23 45 0 900 1 1 0 0 0 1 H9 10 0 60626 0.00000 0 -7089204.954 24353327.374 -2712273.575 10 0 60626 900.00000 0 -6843162.505 23858815.169 -5866550.521 10 0 60626 1800.00000 0 -6584346.155 22969477.946 -8906807.385 10 0 60626 2700.00000 0 -6367521.694 21700520.170 -11773881.514 10 0 60626 3600.00000 0 -6243988.284 20079904.506 -14411933.252 10 0 60626 4500.00000 0 -6259189.548 18147324.053 -16769542.831 10 0 60626 5400.00000 0 -6450578.735 15952695.861 -18800722.984 10 0 60626 6300.00000 0 -6845829.921 13554237.775 -20465826.609 10 0 60626 7200.00000 0 -7461472.619 11016208.453 -21732330.842 10 0 60626 8100.00000 0 -8302009.302 8406404.796 -22575481.477 10 0 60626 9000.00000 0 -9359554.768 5793521.353 -22978784.457 10 0 60626 9900.00000 0 -10614014.086 3244482.279 -22934334.323 10 0 60626 10800.00000 0 -12033792.847 821857.534 -22442972.785 10 0 60626 11700.00000 0 -13577010.682 -1418528.571 -21514274.078 10 0 60626 12600.00000 0 -15193167.492 -3429696.486 -20166357.227 10 0 60626 13500.00000 0 -16825192.372 -5175230.705 -18425528.920 10 0 60626 14400.00000 0 -18411788.832 -6630547.926 -16325764.116 10 0 60626 15300.00000 0 -19889977.125 -7783661.967 -13908034.897 10 0 60626 16200.00000 0 -21197726.004 -8635414.833 -11219501.209 10 0 60626 17100.00000 0 -22276562.424 -9199166.079 -8312580.026 10 0 60626 18000.00000 0 -23074048.599 -9499955.703 -5243912.031 10 0 60626 18900.00000 0 -23546021.621 -9573178.157 -2073247.026 10 0 60626 19800.00000 0 -23658501.108 -9462825.876 1137729.123 10 0 60626 20700.00000 0 -23389184.663 -9219378.688 4326602.056 10 0 60626 21600.00000 0 -22728468.681 -8897430.385 7431446.591 10 0 60626 22500.00000 0 -21679952.304 -8553154.279 10392030.206 10 0 60626 23400.00000 0 -20260404.327 -8241716.023 13150978.607 10 0 60626 24300.00000 0 -18499195.471 -8014743.476 15654880.915 10 0 60626 25200.00000 0 -16437220.723 -7917960.434 17855313.645 10 0 60626 26100.00000 0 -14125357.525 -7989083.544 19709764.592 10 0 60626 27000.00000 0 -11622524.465 -8256070.205 21182440.092 10 0 60626 27900.00000 0 -8993421.176 -8735790.204 22244941.613 10 0 60626 28800.00000 0 -6306042.772 -9433176.022 22876800.167 10 0 60626 29700.00000 0 -3629070.863 -10340886.775 23065859.772 10 0 60626 30600.00000 0 -1029247.733 -11439499.618 22808503.785 10 0 60626 31500.00000 0 1431159.342 -12698220.791 22109720.615 10 0 60626 32400.00000 0 3696700.621 -14076087.277 20983007.924 10 0 60626 33300.00000 0 5720798.223 -15523609.986 19450117.050 10 0 60626 34200.00000 0 7467428.807 -16984791.278 17540641.946 10 0 60626 35100.00000 0 8912366.286 -18399434.130 15291459.544 10 0 60626 36000.00000 0 10043933.973 -19705648.045 12746030.986 10 0 60626 36900.00000 0 10863235.478 -20842448.196 9953575.733 10 0 60626 37800.00000 0 11383854.978 -21752340.024 6968133.008 10 0 60626 38700.00000 0 11631039.339 -22383781.408 3847527.327 10 0 60626 39600.00000 0 11640396.081 -22693419.012 652257.081 10 0 60626 40500.00000 0 11456161.540 -22648004.199 -2555673.068 10 0 60626 41400.00000 0 11129111.811 -22225906.749 -5713953.722 10 0 60626 42300.00000 0 10714204.410 -21418161.055 -8761182.805 10 0 60626 43200.00000 0 10268050.364 -20228998.814 -11638064.239 10 0 60626 44100.00000 0 9846323.994 -18675843.707 -14288569.284 10 0 60626 45000.00000 0 9501220.676 -16788766.207 -16661037.022 10 0 60626 45900.00000 0 9279071.219 -14609419.531 -18709191.652 10 0 60626 46800.00000 0 9218215.025 -12189499.768 -20393055.786 10 0 60626 47700.00000 0 9347223.447 -9588793.531 -21679741.013 10 0 60626 48600.00000 0 9683549.940 -6872894.039 -22544099.512 10 0 60626 49500.00000 0 10232665.475 -4110680.711 -22969223.326 10 0 60626 50400.00000 0 10987717.023 -1371667.458 -22946780.978 10 0 60626 51300.00000 0 11929724.596 1276669.501 -22477184.463 10 0 60626 52200.00000 0 13028309.295 3771472.623 -21569583.092 10 0 60626 53100.00000 0 14242922.111 6056884.943 -20241684.146 10 0 60626 54000.00000 0 15524521.739 8086133.490 -18519403.857 10 0 60626 54900.00000 0 16817630.444 9823227.549 -16436355.705 10 0 60626 55800.00000 0 18062680.736 11244201.399 -14033186.359 10 0 60626 56700.00000 0 19198553.168 12337850.699 -11356772.807 10 0 60626 57600.00000 0 20165197.366 13105933.182 -8459297.028 10 0 60626 58500.00000 0 20906224.868 13562827.203 -5397217.259 10 0 60626 59400.00000 0 21371363.658 13734664.756 -2230156.909 10 0 60626 60300.00000 0 21518670.378 13657977.887 980266.100 10 0 60626 61200.00000 0 21316406.681 13377917.941 4171645.696 10 0 60626 62100.00000 0 20744500.774 12946125.048 7282005.321 10 0 60626 63000.00000 0 19795533.027 12418339.590 10251002.613 10 0 60626 63900.00000 0 18475204.834 11851857.958 13021097.330 10 0 60626 64800.00000 0 16802271.820 11302940.757 15538660.005 10 0 60626 65700.00000 0 14807944.944 10824283.062 17755000.388 10 0 60626 66600.00000 0 12534785.184 10462653.038 19627296.686 10 0 60626 67500.00000 0 10035138.239 10256797.580 21119408.942 10 0 60626 68400.00000 0 7369174.370 10235701.999 22202562.362 10 0 60626 69300.00000 0 4602614.356 10417275.704 22855888.953 10 0 60626 70200.00000 0 1804234.919 10807517.949 23066818.545 10 0 60626 71100.00000 0 -956744.450 11400197.823 22831312.929 10 0 60626 72000.00000 0 -3613286.773 12177061.514 22153939.445 10 0 60626 72900.00000 0 -6103068.290 13108558.257 21047783.059 10 0 60626 73800.00000 0 -8370811.840 14155055.249 19534198.504 10 0 60626 74700.00000 0 -10370328.071 15268491.687 17642406.693 10 0 60626 75600.00000 0 -12066181.466 16394404.079 15408942.171 10 0 60626 76500.00000 0 -13434913.208 17474239.483 12876960.934 10 0 60626 77400.00000 0 -14465770.789 18447861.109 10095420.495 10 0 60626 78300.00000 0 -15160914.286 19256142.347 7118146.526 10 0 60626 79200.00000 0 -15535090.729 19843541.008 4002802.710 10 0 60626 80100.00000 0 -15614789.836 20160545.761 809782.672 10 0 60626 81000.00000 0 -15436916.174 20165891.440 -2398955.367 10 0 60626 81900.00000 0 -15047033.062 19828448.960 -5561088.976 10 0 60626 82800.00000 0 -14497251.881 19128708.723 -8615143.622 10 0 60626 83700.00000 0 -13843855.644 18059793.110 -11501692.565 10 0 60626 84600.00000 0 -13144757.322 16627953.215 -14164520.604 10 0 60626 85500.00000 0 -12456900.760 14852526.664 -16551728.112 10 0 60627 0.00000 0 -11833714.821 12765356.261 -18616752.777 10 0 60627 900.00000 0 -11322729.048 10409690.698 -20319289.210 10 0 60627 1800.00000 0 -10963453.579 7838614.669 -21626084.863 10 0 60627 2700.00000 0 -10785612.981 5113069.137 -22511599.607 10 0 60627 3600.00000 0 -10807810.681 2299546.457 -22958512.555 10 0 60627 4500.00000 0 -11036681.066 -532444.813 -22958066.845 10 0 60627 5400.00000 0 -11466565.982 -3313039.539 -22510245.037 10 0 60627 6300.00000 0 -12079729.849 -5974689.043 -21623771.415 10 0 60627 7200.00000 0 -12847104.587 -8454735.800 -20315941.015 10 0 60627 8100.00000 0 -13729532.847 -10697782.310 -18612278.721 10 0 60627 9000.00000 0 -14679456.705 -12657755.336 -16546035.261 10 0 60627 9900.00000 0 -15642979.848 -14299579.632 -14157530.286 10 0 60627 10800.00000 0 -16562215.307 -15600391.938 -11493355.915 10 0 60627 11700.00000 0 -17377818.546 -16550245.613 -8605456.999 10 0 60627 12600.00000 0 -18031597.871 -17152277.985 -5550106.990 10 0 60627 13500.00000 0 -18469090.893 -17422335.378 -2386800.417 10 0 60627 14400.00000 0 -18641997.432 -17388073.859 822915.366 10 0 60627 15300.00000 0 -18510365.608 -17087575.917 4016645.301 10 0 60627 16200.00000 0 -18044438.640 -16567543.658 7132364.274 10 0 60627 17100.00000 0 -17226084.614 -15881146.767 10109622.940 10 0 60627 18000.00000 0 -16049749.349 -15085617.607 12890717.962 10 0 60627 18900.00000 0 -14522892.881 -14239695.992 15421804.043 10 0 60627 19800.00000 0 -12665891.812 -13401031.814 17653926.761 10 0 60627 20700.00000 0 -10511412.141 -12623654.801 19543957.080 10 0 60627 21600.00000 0 -8103279.066 -11955617.225 21055410.780 10 0 60627 22500.00000 0 -5494890.789 -11436907.528 22159138.475 10 0 60627 23400.00000 0 -2747241.874 -11097721.141 22833874.458 10 0 60627 24300.00000 0 73362.695 -10957159.629 23066635.301 10 0 60627 25200.00000 0 2897809.359 -11022411.409 22852961.797 10 0 60627 26100.00000 0 5656791.737 -11288447.417 22197000.474 10 0 60627 27000.00000 0 8283433.982 -11738243.985 21111423.564 10 0 60627 27900.00000 0 10715815.134 -12343523.572 19617188.875 10 0 60627 28800.00000 0 12899291.830 -13065982.863 17743143.673 10 0 60627 29700.00000 0 14788524.770 -13858957.693 15525479.197 10 0 60627 30600.00000 0 16349126.157 -14669456.170 13007045.030 10 0 60627 31500.00000 0 17558860.487 -15440475.967 10236535.084 10 0 60627 32400.00000 0 18408349.114 -16113509.620 7267559.419 10 0 60627 33300.00000 0 18901249.204 -16631133.357 4157618.430 10 0 60627 34200.00000 0 19053899.277 -16939570.927 966998.158 10 0 60627 35100.00000 0 18894445.682 -16991124.303 -2242392.701 10 0 60627 36000.00000 0 18461486.066 -16746368.085 -5408221.954 10 0 60627 36900.00000 0 17802286.347 -16176013.777 -8468945.945 10 0 60627 37800.00000 0 16970645.904 -15262363.553 -11365010.585 10 0 60627 38700.00000 0 16024500.830 -14000290.053 -14040017.410 10 0 60627 39600.00000 0 15023366.556 -12397698.576 -16441831.100 10 0 60627 40500.00000 0 14025728.218 -10475449.818 -18523605.934 10 0 60627 41400.00000 0 13086489.631 -8266744.086 -20244710.243 10 0 60627 42300.00000 0 12254589.474 -5815990.850 -21571529.845 10 0 60627 43200.00000 0 11570886.255 -3177209.335 -22478133.999 10 0 60627 44100.00000 0 11066402.258 -412025.873 -22946790.147 10 0 60627 45000.00000 0 10761001.446 2412649.041 -22968316.847 10 0 60627 45900.00000 0 10662557.708 5227167.369 -22542267.570 10 0 60627 46800.00000 0 10766648.934 7961807.642 -21676941.484 10 0 60627 47700.00000 0 11056789.898 10549445.261 -20389220.878 10 0 60627 48600.00000 0 11505193.866 12928117.402 -18704238.393 10 0 60627 49500.00000 0 12074030.196 15043375.352 -16654880.725 10 0 60627 50400.00000 0 12717123.972 16850326.082 -14281138.848 10 0 60627 51300.00000 0 13382024.757 18315278.115 -11629317.984 10 0 60627 52200.00000 0 14012355.806 19416923.622 -8751123.458 10 0 60627 53100.00000 0 14550343.132 20147008.372 -5702641.201 10 0 60627 54000.00000 0 14939416.235 20510463.122 -2543233.842 10 0 60627 54900.00000 0 15126769.474 20524992.871 665625.060 10 0 60627 55800.00000 0 15065774.983 20220143.447 3861554.805 10 0 60627 56700.00000 0 14718144.679 19635886.960 6982485.048 10 0 60627 57600.00000 0 14055749.904 18820787.816 9967862.689 10 0 60627 58500.00000 0 13062022.113 17829828.305 12759824.314 10 0 60627 59400.00000 0 11732875.970 16721986.735 15304311.565 10 0 60627 60300.00000 0 10077116.489 15557670.758 17552108.296 10 0 60627 61200.00000 0 8116313.597 14396114.050 19459780.352 10 0 60627 62100.00000 0 5884149.613 13292845.257 20990501.026 10 0 60627 63000.00000 0 3425266.836 12297334.481 22114747.764 10 0 60627 63900.00000 0 793662.874 11450914.609 22810858.205 10 0 60627 64800.00000 0 -1949300.426 10785063.044 23065436.328 10 0 60627 65700.00000 0 -4737193.067 10320114.107 22873602.208 10 0 60627 66600.00000 0 -7501024.422 10064454.642 22239081.413 10 0 60627 67500.00000 0 -10171860.190 10014235.376 21174132.847 10 0 60627 68400.00000 0 -12683442.445 10153609.512 19699316.369 10 0 60627 69300.00000 0 -14974706.130 10455488.472 17843104.149 10 0 60627 70200.00000 0 -16992089.446 10882783.488 15641342.288 10 0 60627 71100.00000 0 -18691543.683 11390081.776 13136571.796 10 0 60627 72000.00000 0 -20040159.877 11925687.880 10377220.576 10 0 60627 72900.00000 0 -21017345.109 12433945.495 7416680.494 10 0 60627 73800.00000 0 -21615499.398 12857742.938 4312285.971 10 0 60627 74700.00000 0 -21840164.547 13141097.327 1124212.724 10 0 60627 75600.00000 0 -21709638.077 13231708.628 -2085682.839 10 0 60627 76500.00000 0 -21254067.658 13083375.379 -5255061.518 10 0 60627 77400.00000 0 -20514063.295 12658169.097 -8322313.269 10 0 60627 78300.00000 0 -19538884.978 11928274.056 -11227759.324 10 0 60627 79200.00000 0 -18384281.658 10877412.776 -13914820.529 10 0 60627 80100.00000 0 -17110072.455 9501794.820 -16331128.257 10 0 60627 81000.00000 0 -15777572.173 7810546.436 -18429555.367 10 0 60627 81900.00000 0 -14446970.060 5825600.521 -20169146.129 10 0 60627 82800.00000 0 -13174772.948 3581049.245 -21515926.031 10 0 60627 83700.00000 0 -12011421.271 1121984.523 -22443574.835 10 0 60627 84600.00000 0 -10999179.165 -1497126.692 -22933949.052 10 0 60627 85500.00000 0 -10170388.267 -4214465.422 -22977443.005 10 0 60628 0.00000 0 -9546159.290 -6963197.881 -22573181.097 10 0 60628 900.00000 0 -9135556.437 -9674031.065 -21729036.910 10 0 60628 1800.00000 0 -8935309.764 -12277876.312 -20461479.248 10 0 60628 2700.00000 0 -8930066.047 -14708514.357 -18795247.431 10 0 60628 3600.00000 0 -9093167.716 -16905146.689 -16762862.762 10 0 60628 4500.00000 0 -9387925.515 -18814727.899 -14403985.934 10 0 60628 5400.00000 0 -9769329.908 -20393981.335 -11764633.471 10 0 60628 6300.00000 0 -10186127.398 -21611014.082 -8896269.221 10 0 60628 7200.00000 0 -10583172.403 -22446464.379 -5854789.542 10 0 60628 8100.00000 0 -10903953.717 -22894134.541 -2699423.010 10 0 60628 9000.00000 0 -11093187.260 -22961084.422 508432.837 10 0 60628 9900.00000 0 -11099364.328 -22667183.348 3706413.965 10 0 60628 10800.00000 0 -10877146.795 -22044141.452 6832407.206 10 0 60628 11700.00000 0 -10389507.566 -21134063.167 9825758.177 10 0 60628 12600.00000 0 -9609525.837 -19987585.655 12628445.917 10 0 60628 13500.00000 0 -8521761.632 -18661681.926 15186201.509 10 0 60628 14400.00000 0 -7123152.107 -17217222.023 17449549.515 10 0 60628 15300.00000 0 -5423392.383 -15716395.111 19374752.925 10 0 60628 16200.00000 0 -3444785.179 -14220100.442 20924644.577 10 0 60628 17100.00000 0 -1221565.614 -12785415.705 22069330.495 10 0 60628 18000.00000 0 1201270.974 -11463247.519 22786753.078 10 0 60628 18900.00000 0 3769590.067 -10296260.694 23063104.816 10 0 60628 19800.00000 0 6422121.638 -9317171.017 22893085.820 10 0 60628 20700.00000 0 9092764.781 -8547471.190 22280001.155 10 0 60628 21600.00000 0 11713099.509 -7996641.589 21235696.577 10 0 60628 22500.00000 0 14215003.583 -7661877.701 19780333.895 10 0 60628 23400.00000 0 16533267.826 -7528344.939 17942009.805 10 0 60628 24300.00000 0 18608103.233 -7569950.013 15756224.595 10 0 60628 25200.00000 0 20387437.300 -7750596.740 13265209.705 10 0 60628 26100.00000 0 21828905.125 -8025874.285 10517125.648 10 0 60628 27000.00000 0 22901452.987 -8345107.626 7565144.315 10 0 60628 27900.00000 0 23586487.587 -8653684.828 4466431.946 10 0 60628 28800.00000 0 23878522.554 -8895563.683 1281051.332 10 0 60628 29700.00000 0 23785294.437 -9015852.281 -1929196.349 10 0 60628 30600.00000 0 23327342.375 -8963354.416 -5101968.081 10 0 60628 31500.00000 0 22537068.056 -8692971.595 -8175590.748 10 0 60628 32400.00000 0 21457314.495 -8167858.931 -11090264.245 10 0 60628 33300.00000 0 20139522.613 -7361242.107 -13789231.962 10 0 60628 34200.00000 0 18641542.687 -6257816.578 -16219895.045 10 0 60628 35100.00000 0 17025192.544 -4854667.598 -18334847.766 10 0 60628 36000.00000 0 15353665.413 -3161669.814 -20092812.893 10 0 60628 36900.00000 0 13688896.836 -1201347.204 -21459457.821 10 0 60628 37800.00000 0 12089002.010 991802.962 -22408074.706 10 0 60628 38700.00000 0 10605891.913 3372495.635 -22920110.621 10 0 60628 39600.00000 0 9283169.075 5886304.756 -22985536.742 10 0 60628 40500.00000 0 8154391.878 8471703.326 -22603048.946 10 0 60628 41400.00000 0 7241780.548 11062412.032 -21780095.583 10 0 60628 42300.00000 0 6555419.149 13589958.404 -20532731.716 10 0 60628 43200.00000 0 6092986.621 15986339.436 -18885302.687 10 0 60628 44100.00000 0 5840027.346 18186676.088 -16869963.320 10 0 60628 45000.00000 0 5770748.579 20131748.345 -14526042.523 10 0 60628 45900.00000 0 5849309.598 21770304.529 -11899266.209 10 0 60628 46800.00000 0 6031546.420 23061048.207 -9040854.440 10 0 60628 47700.00000 0 6267057.341 23974219.750 -6006511.326 10 0 60628 48600.00000 0 6501559.307 24492706.939 -2855328.397 10 0 60628 49500.00000 0 6679413.747 24612639.168 351376.071 10 0 60628 50400.00000 0 6746213.525 24343441.758 3551258.107 10 0 60628 51300.00000 0 6651320.487 23707349.876 6682165.160 10 0 60628 52200.00000 0 6350245.527 22738404.349 9683344.957 10 0 60628 53100.00000 0 5806770.310 21480973.385 12496622.221 10 0 60628 54000.00000 0 4994721.069 19987863.872 15067520.483 10 0 60628 54900.00000 0 3899320.008 18318102.691 17346307.736 10 0 60628 55800.00000 0 2518057.809 16534481.734 19288946.501 10 0 60628 56700.00000 0 861050.979 14700969.524 20857931.194 10 0 60628 57600.00000 0 -1049130.779 12880097.137 22022998.054 10 0 60628 58500.00000 0 -3178160.075 11130426.621 22761695.476 10 0 60628 59400.00000 0 -5481141.710 9504206.015 23059805.247 10 0 60628 60300.00000 0 -7904248.347 8045306.992 22911607.859 10 0 60628 61200.00000 0 -10386735.248 6787529.215 22319987.735 10 0 60628 62100.00000 0 -12863252.106 5753340.293 21296376.845 10 0 60628 63000.00000 0 -15266357.870 4953102.292 19860537.827 10 0 60628 63900.00000 0 -17529136.118 4384815.978 18040190.313 10 0 60628 64800.00000 0 -19587804.215 4034392.727 15870486.760 10 0 60628 65700.00000 0 -21384209.426 3876442.507 13393346.644 10 0 60628 66600.00000 0 -22868109.273 3875545.085 10656660.418 10 0 60628 67500.00000 0 -23999141.873 3987951.588 7713377.120 10 0 60628 68400.00000 0 -24748404.142 4163645.482 4620491.823 10 0 60628 69300.00000 0 -25099571.615 4348676.782 1437951.361 10 0 60628 70200.00000 0 -25049512.184 4487671.421 -1772501.330 10 0 60628 71100.00000 0 -24608366.951 4526409.912 -4948522.381 10 0 60628 72000.00000 0 -23799093.551 4414365.879 -8028378.499 10 0 60628 72900.00000 0 -22656489.815 4107096.278 -10952151.014 10 0 60628 73800.00000 0 -21225737.694 3568380.807 -13662908.506 10 0 60628 74700.00000 0 -19560527.719 2772018.276 -16107824.314 10 0 60628 75600.00000 0 -17720842.297 1703201.889 -18239216.271 10 0 60628 76500.00000 0 -15770490.708 359413.037 -20015487.420 10 0 60628 77400.00000 0 -13774499.484 -1249206.436 -21401948.403 10 0 60628 78300.00000 0 -11796468.069 -3100021.457 -22371504.635 10 0 60628 79200.00000 0 -9896001.185 -5158605.432 -22905194.113 10 0 60628 80100.00000 0 -8126326.204 -7379948.667 -22992564.736 10 0 60628 81000.00000 0 -6532195.863 -9710124.045 -22631883.328 10 0 60628 81900.00000 0 -5148164.515 -12088341.004 -21830171.949 10 0 60628 82800.00000 0 -3997310.173 -14449302.145 -20603070.609 10 0 60628 83700.00000 0 -3090455.533 -16725763.834 -18974529.062 10 0 60628 84600.00000 0 -2425919.815 -18851193.353 -16976333.830 10 0 60628 85500.00000 0 -1989810.624 -20762410.901 -14647480.063 10 0 60629 0.00000 0 -1756841.898 -22402105.241 -12033401.245 10 0 60629 900.00000 0 -1691641.493 -23721118.092 -9185071.078 10 0 60629 1800.00000 0 -1750491.404 -24680399.248 -6157999.531 10 0 60629 2700.00000 0 -1883424.618 -25252553.616 -3011139.000 10 0 60629 3600.00000 0 -2036588.283 -25422913.633 194273.583 10 0 60629 4500.00000 0 -2154771.320 -25190093.973 3395916.380 10 0 60629 5400.00000 0 -2183988.094 -24566006.487 6531599.538 10 0 60629 6300.00000 0 -2074007.879 -23575336.301 9540474.985 10 0 60629 7200.00000 0 -1780722.554 -22254502.726 12364215.229 10 0 60629 8100.00000 0 -1268252.364 -20650150.116 14948138.330 10 0 60629 9000.00000 0 -510701.073 -18817233.160 17242257.705 10 0 60629 9900.00000 0 506513.024 -16816777.610 19202237.266 10 0 60629 10800.00000 0 1785805.750 -14713410.393 20790234.659 10 0 60629 11700.00000 0 3317090.746 -12572761.897 21975617.741 10 0 60629 12600.00000 0 5077972.148 -10458847.971 22735542.008 10 0 60629 13500.00000 0 7034458.463 -8431539.322 23055379.347 10 0 60629 14400.00000 0 9142168.515 -6544221.899 22928991.129 10 0 60629 15300.00000 0 11347980.283 -4841743.714 22358841.350 10 0 60629 16200.00000 0 13592055.508 -3358731.527 21355948.165 10 0 60629 17100.00000 0 15810157.611 -2118345.628 19939674.772 10 0 60629 18000.00000 0 17936168.416 -1131523.087 18137363.254 10 0 60629 18900.00000 0 19904700.879 -396739.887 15983817.529 10 0 60629 19800.00000 0 21653700.749 99698.773 13520644.157 10 0 60629 20700.00000 0 23126930.084 382852.385 10795462.309 10 0 60629 21600.00000 0 24276229.870 487856.886 7860996.638 10 0 60629 22500.00000 0 25063467.557 458207.972 4774069.174 10 0 60629 23400.00000 0 25462087.777 343687.712 1594508.598 10 0 60629 24300.00000 0 25458200.563 198021.426 -1616002.917 10 0 60629 25200.00000 0 25051160.261 76363.534 -4795123.401 10 0 60629 26100.00000 0 24253609.409 32718.757 -7881062.292 10 0 60629 27000.00000 0 23090984.207 117408.282 -10813785.324 10 0 60629 27900.00000 0 21600500.824 374689.143 -13536189.180 10 0 60629 28800.00000 0 19829663.872 840628.958 -15995222.191 10 0 60629 29700.00000 0 17834358.635 1541327.734 -18142928.366 10 0 60629 30600.00000 0 15676606.519 2491563.998 -19937393.425 10 0 60629 31500.00000 0 13422077.592 3693924.577 -21343573.429 10 0 60629 32400.00000 0 11137464.562 5138456.963 -22333988.953 10 0 60629 33300.00000 0 8887828.482 6802860.937 -22889270.541 10 0 60629 34200.00000 0 6734027.787 8653213.148 -22998544.110 10 0 60629 35100.00000 0 4730338.672 10645195.595 -22659648.366 10 0 60629 36000.00000 0 2922366.717 12725777.430 -21879179.605 10 0 60629 36900.00000 0 1345337.216 14835280.014 -20672362.879 10 0 60629 37800.00000 0 22835.509 16909738.756 -19062751.997 10 0 60629 38700.00000 0 -1033950.647 18883462.491 -17081764.373 10 0 60629 39600.00000 0 -1826456.024 20691682.586 -14768060.143 10 0 60629 40500.00000 0 -2368422.321 22273180.085 -12166778.191 10 0 60629 41400.00000 0 -2685057.267 23572780.106 -9328644.720 10 0 60629 42300.00000 0 -2811705.999 24543608.366 -6308972.668 10 0 60629 43200.00000 0 -2792093.090 25149014.938 -3166572.528 10 0 60629 44100.00000 0 -2676211.718 25364084.627 37403.128 10 0 60629 45000.00000 0 -2517951.276 25176671.105 3240657.805 10 0 60629 45900.00000 0 -2372565.502 24587912.285 6380967.660 10 0 60629 46800.00000 0 -2294089.547 23612206.521 9397392.154 10 0 60629 47700.00000 0 -2332816.061 22276651.989 12231454.852 10 0 60629 48600.00000 0 -2532937.316 20619974.147 14828271.469 10 0 60629 49500.00000 0 -2930452.842 18690987.379 17137603.779 10 0 60629 50400.00000 0 -3551430.436 16546656.067 19114819.759 10 0 60629 51300.00000 0 -4410693.147 14249836.495 20721742.649 10 0 60629 52200.00000 0 -5510986.893 11866793.638 21927373.932 10 0 60629 53100.00000 0 -6842663.172 9464595.630 22708477.812 10 0 60629 54000.00000 0 -8383890.059 7108493.081 23050017.433 10 0 60629 54900.00000 0 -10101382.958 4859390.562 22945435.714 10 0 60629 55800.00000 0 -11951625.319 2771513.383 22396776.368 10 0 60629 56700.00000 0 -13882529.584 890364.557 21414643.325 10 0 60629 57600.00000 0 -15835470.662 -748945.184 20017999.384 10 0 60629 58500.00000 0 -17747608.959 -2122926.596 18233807.581 10 0 60629 59400.00000 0 -19554407.977 -3220450.659 16096521.295 10 0 60629 60300.00000 0 -21192243.253 -4042967.013 13647431.742 10 0 60629 61200.00000 0 -22600995.187 -4604193.547 10933884.008 10 0 60629 62100.00000 0 -23726518.491 -4929290.269 8008375.299 10 0 60629 63000.00000 0 -24522885.446 -5053551.939 4927551.375 10 0 60629 63900.00000 0 -24954308.949 -5020674.036 1751119.431 10 0 60629 64800.00000 0 -24996664.084 -4880664.661 -1459302.452 10 0 60629 65700.00000 0 -24638543.188 -4687490.138 -4641377.511 10 0 60629 66600.00000 0 -23881798.626 -4496553.690 -7733261.127 10 0 60629 67500.00000 0 -22741548.667 -4362114.074 -10674806.531 10 0 60629 68400.00000 0 -21245644.475 -4334754.041 -13408741.433 10 0 60629 69300.00000 0 -19433618.872 -4459006.870 -15881791.832 10 0 60629 70200.00000 0 -17355159.601 -4771242.829 -18045730.268 10 0 60629 71100.00000 0 -15068170.039 -5297906.718 -19858327.076 10 0 60629 72000.00000 0 -12636497.959 -6054182.912 -21284185.156 10 0 60629 72900.00000 0 -10127427.133 -7043146.255 -22295441.100 10 0 60629 73800.00000 0 -7609036.767 -8255436.553 -22872318.232 10 0 60629 74700.00000 0 -5147539.408 -9669472.076 -23003520.128 10 0 60629 75600.00000 0 -2804708.958 -11252194.514 -22686456.451 10 0 60629 76500.00000 0 -635506.550 -12960315.080 -21927296.336 10 0 60629 77400.00000 0 1313996.321 -14742010.006 -20740848.080 10 0 60629 78300.00000 0 3008310.713 -16538994.353 -19150267.455 10 0 60629 79200.00000 0 4423768.921 -18288886.894 -17186600.461 10 0 60629 80100.00000 0 5549257.971 -19927766.184 -14888169.774 10 0 60629 81000.00000 0 6386418.591 -21392809.760 -12299817.406 10 0 60629 81900.00000 0 6949303.143 -22624904.849 -9472019.045 10 0 60629 82800.00000 0 7263509.026 -23571120.098 -6459888.300 10 0 60629 83700.00000 0 7364826.449 -24186933.958 -3322091.286 10 0 60629 84600.00000 0 7297460.015 -24438125.785 -119693.810 10 0 60629 85500.00000 0 7111901.507 -24302250.292 3085035.287 99